RYR7MD LEPA-LEBL

Flight info

Callsign RYR7MD
Flight time 0h 31m
Altitude 18000
Route ESPOR L2 NEPAL
Aircraft A320/M-SDE3FGHIRWY/LB1

Departure

Time 2026-05-06 15:40
Airport Palma de Mallorca Airport (LEPA)

Arrival

Time 2026-05-06 16:12
Airport Josep Tarradellas Barcelona-El Prat Airport (LEBL)
Time Latitude Longitude Altitude Speed Heading
2026-05-06 15:27 39.54983 2.73395 30 ft 0 kts 163°
2026-05-06 15:32 39.55020 2.73375 30 ft 4 kts 141°
2026-05-06 15:32 39.55035 2.73350 30 ft 3 kts 92°
2026-05-06 15:32 39.55035 2.73344 30 ft 0 kts 86°
2026-05-06 15:34 39.55036 2.73354 30 ft 4 kts 86°
2026-05-06 15:34 39.55048 2.73410 30 ft 10 kts 60°
2026-05-06 15:35 39.55087 2.73494 30 ft 11 kts 58°
2026-05-06 15:35 39.55128 2.73580 30 ft 11 kts 58°
2026-05-06 15:35 39.55169 2.73667 30 ft 11 kts 58°
2026-05-06 15:35 39.55170 2.73761 30 ft 11 kts 96°
2026-05-06 15:36 39.55171 2.73852 30 ft 10 kts 121°
2026-05-06 15:36 39.55115 2.73902 30 ft 10 kts 148°
2026-05-06 15:36 39.55051 2.73952 30 ft 13 kts 149°
2026-05-06 15:36 39.54967 2.74018 30 ft 15 kts 148°
2026-05-06 15:37 39.54877 2.74089 30 ft 15 kts 149°
2026-05-06 15:37 39.54785 2.74104 30 ft 14 kts 218°
2026-05-06 15:37 39.54725 2.73990 30 ft 15 kts 238°
2026-05-06 15:37 39.54671 2.73875 30 ft 16 kts 238°
2026-05-06 15:38 39.54610 2.73747 30 ft 17 kts 238°
2026-05-06 15:38 39.54546 2.73685 30 ft 9 kts 172°
2026-05-06 15:38 39.54493 2.73716 30 ft 5 kts 148°
2026-05-06 15:38 39.54490 2.73718 30 ft 0 kts 148°
2026-05-06 15:39 39.54477 2.73729 30 ft 5 kts 148°
2026-05-06 15:39 39.54447 2.73753 30 ft 6 kts 148°
2026-05-06 15:39 39.54423 2.73791 30 ft 5 kts 85°
2026-05-06 15:39 39.54441 2.73835 30 ft 6 kts 59°
2026-05-06 15:40 39.54511 2.73983 30 ft 47 kts 58°
2026-05-06 15:40 39.54800 2.74594 30 ft 109 kts 58°
2026-05-06 15:40 39.55282 2.75612 58 ft 151 kts 58°
2026-05-06 15:40 39.55809 2.76752 636 ft 149 kts 59°
2026-05-06 15:41 39.56336 2.77917 1257 ft 151 kts 60°
2026-05-06 15:41 39.56867 2.79101 1804 ft 155 kts 60°
2026-05-06 15:41 39.57455 2.80405 2058 ft 179 kts 59°
2026-05-06 15:41 39.58125 2.81873 2405 ft 199 kts 59°
2026-05-06 15:42 39.58870 2.83502 2810 ft 217 kts 59°
2026-05-06 15:42 39.59649 2.85203 3585 ft 221 kts 59°
2026-05-06 15:42 39.60439 2.86928 4373 ft 225 kts 59°
2026-05-06 15:42 39.61244 2.88684 5152 ft 229 kts 59°
2026-05-06 15:43 39.62276 2.90252 5872 ft 232 kts 31°
2026-05-06 15:43 39.63795 2.90898 6590 ft 233 kts 358°
2026-05-06 15:43 39.65363 2.90411 7183 ft 241 kts 328°
2026-05-06 15:43 39.66704 2.88981 7550 ft 262 kts 314°
2026-05-06 15:44 39.68036 2.87272 8185 ft 273 kts 313°
2026-05-06 15:44 39.69396 2.85521 9026 ft 277 kts 313°
2026-05-06 15:44 39.70775 2.83749 9903 ft 281 kts 313°
2026-05-06 15:44 39.72201 2.81920 10341 ft 299 kts 313°
2026-05-06 15:45 39.73739 2.79943 10598 ft 321 kts 313°
2026-05-06 15:45 39.75351 2.77876 11146 ft 329 kts 313°
2026-05-06 15:45 39.76998 2.75774 11843 ft 334 kts 313°
2026-05-06 15:45 39.78666 2.73650 12574 ft 338 kts 313°
2026-05-06 15:46 39.80355 2.71499 13308 ft 342 kts 313°
2026-05-06 15:46 39.82039 2.69351 13989 ft 345 kts 313°
2026-05-06 15:46 39.83784 2.67120 14637 ft 349 kts 312°
2026-05-06 15:46 39.85518 2.64899 15272 ft 351 kts 312°
2026-05-06 15:47 39.87267 2.62658 15908 ft 354 kts 311°
2026-05-06 15:47 39.89025 2.60402 16536 ft 357 kts 311°
2026-05-06 15:47 39.90773 2.58155 17157 ft 359 kts 311°
2026-05-06 15:47 39.92562 2.55853 17741 ft 363 kts 311°
2026-05-06 15:48 39.94362 2.53540 17908 ft 365 kts 311°
2026-05-06 15:48 39.96195 2.51185 17944 ft 374 kts 311°
2026-05-06 15:48 39.98053 2.48795 17945 ft 376 kts 311°
2026-05-06 15:48 39.99913 2.46394 17953 ft 376 kts 311°
2026-05-06 15:49 40.01770 2.43992 17940 ft 376 kts 310°
2026-05-06 15:49 40.03629 2.41591 17952 ft 376 kts 310°
2026-05-06 15:49 40.05490 2.39192 17949 ft 376 kts 311°
2026-05-06 15:49 40.07348 2.36797 17946 ft 376 kts 310°
2026-05-06 15:50 40.09208 2.34396 17945 ft 375 kts 310°
2026-05-06 15:50 40.11060 2.31996 17953 ft 375 kts 310°
2026-05-06 15:50 40.12909 2.29593 17953 ft 375 kts 310°
2026-05-06 15:50 40.14760 2.27189 17951 ft 375 kts 310°
2026-05-06 15:51 40.16614 2.24781 17956 ft 376 kts 310°
2026-05-06 15:51 40.18442 2.22405 17969 ft 376 kts 310°
2026-05-06 15:51 40.20293 2.19998 17972 ft 376 kts 310°
2026-05-06 15:51 40.22145 2.17590 17980 ft 375 kts 310°
2026-05-06 15:52 40.23998 2.15180 17977 ft 375 kts 310°
2026-05-06 15:52 40.25848 2.12772 17976 ft 375 kts 310°
2026-05-06 15:52 40.27851 2.10556 17974 ft 381 kts 320°
2026-05-06 15:52 40.30181 2.08863 17981 ft 387 kts 332°
2026-05-06 15:53 40.32746 2.07708 17972 ft 391 kts 337°
2026-05-06 15:53 40.35336 2.06643 17978 ft 391 kts 337°
2026-05-06 15:53 40.37931 2.05574 17974 ft 390 kts 337°
2026-05-06 15:53 40.40518 2.04504 17961 ft 390 kts 337°
2026-05-06 15:54 40.43108 2.03427 17967 ft 390 kts 337°
2026-05-06 15:54 40.45668 2.02362 17746 ft 380 kts 337°
2026-05-06 15:54 40.48153 2.01333 17477 ft 369 kts 337°
2026-05-06 15:54 40.50568 2.00331 17213 ft 359 kts 337°
2026-05-06 15:55 40.52925 1.99351 16954 ft 353 kts 337°
2026-05-06 15:55 40.55253 1.98376 16691 ft 350 kts 337°
2026-05-06 15:55 40.57556 1.97409 16389 ft 345 kts 338°
2026-05-06 15:55 40.59834 1.96453 15936 ft 342 kts 338°
2026-05-06 15:56 40.62097 1.95502 15474 ft 340 kts 338°
2026-05-06 15:56 40.64347 1.94557 15012 ft 339 kts 339°
2026-05-06 15:56 40.66624 1.93760 14554 ft 340 kts 348°
2026-05-06 15:56 40.68991 1.93626 14090 ft 342 kts
2026-05-06 15:57 40.71332 1.94219 13610 ft 344 kts 16°
2026-05-06 15:57 40.73512 1.95502 13146 ft 343 kts 27°
2026-05-06 15:57 40.75603 1.97011 12660 ft 341 kts 26°
2026-05-06 15:57 40.77679 1.98504 12206 ft 339 kts 26°
2026-05-06 15:58 40.79742 1.99978 11754 ft 336 kts 26°
2026-05-06 15:58 40.81790 2.01439 11305 ft 334 kts 26°
2026-05-06 15:58 40.83824 2.02892 10864 ft 331 kts 26°
2026-05-06 15:58 40.85846 2.04342 10427 ft 330 kts 26°
2026-05-06 15:59 40.87841 2.05775 10178 ft 322 kts 26°
2026-05-06 15:59 40.89750 2.07146 10049 ft 311 kts 26°
2026-05-06 15:59 40.91616 2.08487 9924 ft 301 kts 26°
2026-05-06 15:59 40.93431 2.09806 9659 ft 296 kts 27°
2026-05-06 16:00 40.95218 2.11136 9341 ft 293 kts 27°
2026-05-06 16:00 40.96981 2.12465 9018 ft 290 kts 27°
2026-05-06 16:00 40.98726 2.13790 8703 ft 288 kts 27°
2026-05-06 16:00 41.00458 2.15107 8399 ft 286 kts 27°
2026-05-06 16:01 41.02181 2.16409 8076 ft 284 kts 27°
2026-05-06 16:01 41.03893 2.17699 7771 ft 282 kts 27°
2026-05-06 16:01 41.05596 2.18982 7466 ft 281 kts 27°
2026-05-06 16:01 41.07290 2.20259 7157 ft 279 kts 27°
2026-05-06 16:02 41.08974 2.21530 6849 ft 278 kts 27°
2026-05-06 16:02 41.10645 2.22792 6556 ft 276 kts 27°
2026-05-06 16:02 41.12308 2.24048 6246 ft 274 kts 27°
2026-05-06 16:02 41.13962 2.25298 5942 ft 273 kts 27°
2026-05-06 16:03 41.15607 2.26543 5639 ft 272 kts 27°
2026-05-06 16:03 41.17265 2.27729 5347 ft 269 kts 20°
2026-05-06 16:03 41.19039 2.28440 5031 ft 265 kts
2026-05-06 16:03 41.20860 2.28817 4708 ft 264 kts
2026-05-06 16:04 41.22671 2.29199 4382 ft 263 kts
2026-05-06 16:04 41.24449 2.29587 4122 ft 263 kts
2026-05-06 16:04 41.26133 2.30537 3992 ft 263 kts 31°
2026-05-06 16:04 41.27559 2.31956 3996 ft 249 kts 36°
2026-05-06 16:05 41.28860 2.33371 3995 ft 234 kts 37°
2026-05-06 16:05 41.30077 2.34715 3898 ft 224 kts 37°
2026-05-06 16:05 41.31261 2.36017 3733 ft 218 kts 37°
2026-05-06 16:05 41.32417 2.37287 3561 ft 213 kts 37°
2026-05-06 16:06 41.33623 2.38356 3376 ft 204 kts 19°
2026-05-06 16:06 41.34951 2.38915 3199 ft 197 kts
2026-05-06 16:06 41.36276 2.38822 3083 ft 189 kts 338°
2026-05-06 16:06 41.37417 2.37993 3001 ft 186 kts 316°
2026-05-06 16:07 41.38200 2.36685 2992 ft 183 kts 294°
2026-05-06 16:07 41.38550 2.35075 2990 ft 181 kts 272°
2026-05-06 16:07 41.38403 2.33430 2988 ft 179 kts 250°
2026-05-06 16:07 41.37901 2.31908 2996 ft 180 kts 246°
2026-05-06 16:08 41.37386 2.30388 3002 ft 180 kts 245°
2026-05-06 16:08 41.36871 2.28868 2949 ft 180 kts 245°
2026-05-06 16:08 41.36361 2.27364 2775 ft 176 kts 244°
2026-05-06 16:08 41.35862 2.25895 2559 ft 173 kts 244°
2026-05-06 16:09 41.35369 2.24445 2331 ft 170 kts 244°
2026-05-06 16:09 41.34883 2.23017 2109 ft 168 kts 243°
2026-05-06 16:09 41.34406 2.21616 1896 ft 164 kts 243°
2026-05-06 16:09 41.33942 2.20251 1667 ft 159 kts 242°
2026-05-06 16:10 41.33508 2.18974 1464 ft 145 kts 242°
2026-05-06 16:10 41.33095 2.17764 1266 ft 142 kts 243°
2026-05-06 16:10 41.32688 2.16573 1084 ft 142 kts 242°
2026-05-06 16:10 41.32282 2.15385 893 ft 140 kts 243°
2026-05-06 16:11 41.31889 2.14205 687 ft 142 kts 242°
2026-05-06 16:11 41.31485 2.13023 487 ft 138 kts 242°
2026-05-06 16:11 41.31090 2.11884 289 ft 138 kts 243°
2026-05-06 16:11 41.30688 2.10708 124 ft 137 kts 241°
2026-05-06 16:12 41.30300 2.09575 20 ft 132 kts 242°
2026-05-06 16:12 41.29981 2.08648 23 ft 86 kts 245°
2026-05-06 16:12 41.29800 2.08116 19 ft 36 kts 246°
2026-05-06 16:12 41.29749 2.07832 16 ft 26 kts 269°
2026-05-06 16:13 41.29762 2.07658 13 ft 13 kts 291°
2026-05-06 16:13 41.29837 2.07591 15 ft 12 kts 335°
2026-05-06 16:13 41.29915 2.07545 17 ft 10 kts 336°
2026-05-06 16:13 41.29980 2.07535 18 ft 9 kts 11°
2026-05-06 16:14 41.30032 2.07530 22 ft 6 kts 337°
2026-05-06 16:14 41.30061 2.07513 21 ft 2 kts 336°
2026-05-06 16:14 41.30062 2.07512 21 ft 0 kts 335°